Welcome to The Terminal

Map Downloads:

134 maps found
Name Type Author Date Downloads Rating
Amaplanca II TSC Gwizz 09/10/02 1596 50% (1)
Apple War Ooze TSC Gwizz 21/05/02 1759 0% (0)
Arboria TSC Anders Robert Pilgaard 21/05/02 1649 0% (0)
Atlantis National Railways TSC Anders Robert Pilgaard 21/05/02 2964 100% (2)
Atoll RRT2 Gwizz 21/05/02 1448 70% (2)
Atoll Temple RRT2 Gwizz 21/05/02 1310 0% (0)
Auf Der Flucht RRT2 Robert the "porky" 21/05/02 1571 75% (2)
Aurelia 1862 TSC Anders Robert Pilgaard 21/05/02 1393 0% (0)
Bex TSC Adam 21/05/02 1264 0% (0)
Big Apple II RRT2 PopTop Software 21/05/02 2217 80% (1)
Big Apple IIe TSC Steve Lorenz 21/05/02 1204 0% (0)
Borduria TSC Anders Robert Pilgaard 21/05/02 1381 0% (0)
Britannia RRT2 J Sylvest and GS Bales 21/05/02 1810 0% (0)
Bulvanian Petroleoum TSC Toni Ronkko 24/09/02 1986 50% (2)
Changes In Transportation RRT2 Brian Duarte 21/05/02 2106 0% (0)
Cheryls Valley RRT2 Tigger 21/05/02 1474 0% (0)
Closa RRT2 Darrell 21/05/02 1309 0% (0)
Coal Country RRT2 Sirian 21/05/02 2228 0% (0)
Coast Line TSC Lars Maischak 15/06/03 1336 100% (1)
Colorz! RRT2 Bill Ingram 21/05/02 1639 85% (2)
Copalis RRT2 Mike Burke & Jamie Burnett 21/05/02 1682 95% (2)
Corsairland RRT2 Kent Powderly 21/05/02 1860 0% (0)
County Sodenstein TSC Lars Maischak 15/06/03 1085 60% (1)
Darkmere RRT2 Ian Lewis 21/05/02 1455 0% (0)
Docklands RRT2 Jonathon James Tan 21/05/02 1764 20% (1)
DragonIsle RRT2 Unknown 21/05/02 1617 0% (0)
Edland RRT2 Eddie Bangor 21/05/02 1876 100% (1)
Euphoria TSC PopTop Software 21/05/02 1270 90% (1)
Fantasia TSC Anders Robert Pilgaard 21/05/02 1147 0% (0)
File Island TSC Jimmy Chau 09/12/05 2899 90% (1)
Final Fantasy 7 TSC Matthew Willis 21/05/02 1637 0% (0)
Fisland RRT2 Dave Donaldson 21/05/02 1810 100% (1)
Free Four All RRT2 Sirian 21/05/02 1645 100% (1)
Gateway to Paradise TSC Matthew Asnip 21/05/02 1894 0% (0)
Gateway to Paradise (Light) TSC Matthew Asnip 21/05/02 963 0% (0)
Gold Rush! RRT2 Andrew Mark Schwartz 21/05/02 2168 0% (0)
Golden Fjords Scenic RRT2 Kent Powderly 21/05/02 1604 0% (0)
Grand Prix RRT2 Sirian 21/05/02 1980 89% (7)
Great Crater RRT2 Kent Powderly 21/05/02 2245 90% (1)
Green Mars RRT2 Gonzo 21/05/02 2081 0% (0)
Grosetania RRT2 Whitey 21/05/02 1353 0% (0)
Hail Sevastia TSC David Masters 21/05/02 1376 45% (2)
Hibirnia TSC Anders Robert Pilgaard 21/05/02 1320 0% (0)
High Desert RRT2 Dave 21/05/02 2174 0% (0)
High Desert 2 TSC A. Gracier 21/05/02 1526 0% (0)
Industrial Fixer Upper TSC Gwizz 21/05/02 1340 70% (1)
Island Conquest TSC James Stevens 21/05/02 1210 0% (0)
Kingdom of Tara TSC Anders Robert Pilgaard 21/05/02 1425 30% (1)
Kua'Apuanii TSC PopTop Software 21/05/02 1118 0% (0)
Lagoria TSC Anders Robert Pilgaard 21/05/02 3565 0% (0)
Lala-land TSC Robbie Langton 19/04/04 1460 0% (0)
Lusitania TSC Anders Robert Pilgaard 21/05/02 1374 50% (1)
Mad King Ed TSC Eddie Bangor 21/05/02 1266 90% (1)
Mad King Ed RRT2 Eddie Bangor 21/05/02 1323 0% (0)
Majode TSC Mark Confer 20/02/04 1493 100% (2)
Making The Grade RRT2 Sirian 21/05/02 1760 100% (2)
Making The Grade RRT2 Sirian 21/05/02 1029 0% (0)
Mars RRT2 James Stevens 21/05/02 1509 0% (0)
Mars TSC James Stevens 21/05/02 1128 0% (0)
Mason County RRT2 Mike Gasaway 21/05/02 1394 0% (0)
Metro31-H RRT2 Unknown 21/05/02 1798 0% (0)
Middle Earth RRT2 Kent Powderly 21/05/02 4013 0% (0)
Military 12 TSC Kraellin 21/05/02 1670 30% (1)
MongoIsland TSC Anders Robert Pilgaard 21/05/02 1064 0% (0)
Montania 1858 TSC Anders Robert Pilgaard 21/05/02 1207 0% (0)
Morietzia RRT2 Unknown 21/05/02 1495 0% (0)
Mtron '99 TSC James Stevens 21/05/02 1011 0% (0)
New Eden TSC Marco Stefanutti 21/05/02 2393 0% (0)
Oceania RRT2 Eckhard Flor 21/05/02 1870 0% (0)
Oceania 1862 TSC Anders Robert Pilgaard 21/05/02 1277 0% (0)
Ourcadia RRT2 Rodolphe Bourgouin 21/05/02 1170 0% (0)
Overpass TSC Steve Lorenz 21/05/02 862 0% (0)
Overpass & Tunnels TSC David Gross 21/05/02 1238 0% (0)
Paradise 2000 TSC Rick Bottens 21/05/02 1190 0% (0)
Parniath Bridge TSC PopTop Software 21/05/02 1210 0% (0)
Party Machines TSC Lars Maischak 21/05/02 1356 80% (1)
Patagonia RRT2 [pro] 21/05/02 1625 0% (0)
Peninsula RRT2 Anders Robert Pilgaard 21/05/02 1311 0% (0)
Peninsula 2 TSC Anders Robert Pilgaard 03/06/02 2131 0% (0)
Quickie 2A TSC Unknown 21/05/02 869 0% (0)
Royal Empress TSC Jon Calon 21/05/02 1326 0% (0)
Sarelia TSC Anders Robert Pilgaard 21/05/02 1750 80% (1)
Something Trekky TSC James Stevens 21/05/02 1007 0% (0)
Starship Troopers TSC Steve Lorenz 21/05/02 1823 100% (1)
Strange Glue RRT2 James Stevens 21/05/02 1240 0% (0)
Sylvania TSC Anders Robert Pilgaard 21/05/02 2258 0% (0)
Tanagore Island TSC David Masters 21/05/02 1214 0% (0)
Taresia TSC Anders Robert Pilgaard 03/06/02 1032 0% (0)
Tatooine RRT2 Andy Moorer 21/05/02 1870 0% (0)
Tehos RRT2 Juho Tiettinen 15/06/03 1237 0% (0)
TehoWorld RRT2 Juho Tiettinen 15/06/03 2406 0% (0)
Terra Aqueos RRT2 James Wellham 21/05/02 1615 100% (1)
Tester TSC Steve Lorenz 21/05/02 1009 0% (0)
Tester RRT2 Steve Lorenz 21/05/02 1171 0% (0)
The Darkening 1 TSC James Stevens 21/05/02 1270 80% (1)
The Darkening 2 TSC James Stevens 21/05/02 1023 10% (1)
The Darkening 3: Unite the States TSC James Stevens 21/05/02 1302 90% (1)
The Darkening 4: Floods Legacy TSC James Stevens 21/05/02 1186 0% (0)
The Iron Spike TSC Overlord 15/06/03 2336 0% (0)
The Main Vein RRT2 Derek D 21/05/02 1226 0% (0)
The Mines RRT2 Tony J Frank 21/05/02 1840 0% (0)
The National World TSC Matthew Tam 21/05/02 1337 0% (0)
The World Map TSC Matthew Tam 21/05/02 2221 0% (0)
Tidland TSC James E. Petts 21/05/02 959 0% (0)
Tolnedran Imperial Railway TSC Richard Lally 21/05/02 1639 0% (0)
Towers Of Hell TSC James Stevens 21/05/02 952 0% (0)
Train Island RRT2 Jonathan 21/05/02 1206 0% (0)
Treasure Island RRT2 Unknown 21/05/02 1870 0% (0)
Utopia RRT2 Cecil Harper 21/05/02 1781 0% (0)
Utopia TSC Anders Robert Pilgaard 21/05/02 1135 0% (0)
Utopia 2 TSC Anders Robert Pilgaard 21/05/02 1410 0% (0)
Venturia TSC Anders Robert Pilgaard 03/06/02 2186 0% (0)
Vulcano RRT2 Martijn ter Haar 21/05/02 1079 0% (0)
Witch's Route TSC Charles Swain 21/05/02 957 10% (1)
WNE 01: Map One RRT2 James Stevens 21/05/02 1379 0% (0)
WNE 02: Switzlerland 2099 RRT2 James Stevens 21/05/02 1633 0% (0)
WNE 03: Appleasia RRT2 James Stevens 21/05/02 1348 0% (0)
WNE 04: Begin Again RRT2 James Stevens 21/05/02 1286 0% (0)
WNE 05: Mars Corp RRT2 James Stevens 21/05/02 1269 0% (0)
WNE 06: The Freedom Movement RRT2 James Stevens 21/05/02 1103 0% (0)
WNE 07: Titan: The New Earth? RRT2 James Stevens 21/05/02 1664 0% (0)
WNE 08: Titan: Last Rights RRT2 James Stevens 21/05/02 1349 30% (1)
WNE 09: Erase/Rewind RRT2 James Stevens 21/05/02 1472 0% (0)
WNE 10: Reunification RRT2 James Stevens 21/05/02 1082 0% (0)
WNE 11: Future's End TSC James Stevens 21/05/02 1192 0% (0)
WNE 12: Test Of Time TSC James Stevens 21/05/02 1119 75% (2)
WNE 13: The Awakening RRT2 James Stevens 21/05/02 1224 0% (0)
WNE 14: The Money Pit RRT2 James Stevens 21/05/02 1280 0% (0)
WNE 15: Scorched Earth RRT2 James Stevens 21/05/02 1258 0% (0)
WNE 16: The Launch RRT2 James Stevens 21/05/02 1230 0% (0)
WNE 17: Rising Star RRT2 James Stevens 21/05/02 1032 0% (0)
WNE 18: Cold War RRT2 James Stevens 21/05/02 1274 0% (0)
WNE 19: For Gorwin's Honour RRT2 James Stevens 21/05/02 1348 0% (0)
WNE 20: From Hell's Heart... TSC James Stevens 21/05/02 1010 0% (0)

Site created April 23, 1998. © Jesse Reid, All Rights Reserved, 2003.